FW4701 Weather Reports


Display with metric or nautical units.
time (UTC)temp
F
wind
direction
speed
MPH
gust
MPH
rain 1hr
in
rain 24hr
in
rain mn
in
humidity
%
barometer
mb
20260503200028 65 173 5.0 17.0 0.00 0.00 0.00 45 1008.2
20260503200008 83 210 0.0 5.0 0.00 0.00 0.00 20 1019.6
20260503195511 64 350 4.0 25.0 0.00 0.00 0.00 45 1008.5
20260503195006 64 207 10.0 26.0 0.00 0.00 0.00 45 1008.6
20260503194516 64 207 12.0 26.0 0.00 0.00 0.00 45 1008.7
20260503194504 83 143 0.0 4.0 0.00 0.00 0.00 20 1019.8
20260503194005 64 154 8.0 22.0 0.00 0.00 0.00 46 1008.7
20260503193506 64 243 7.0 14.0 0.00 0.00 0.00 49 1008.7
20260503193008 63 235 4.0 15.0 0.00 0.00 0.00 50 1008.7
20260503193001 83 189 0.0 6.0 0.00 0.00 0.00 19 1020.0
20260503192503 63 194 5.0 16.0 0.00 0.00 0.00 50 1008.8
20260503192002 63 171 8.0 16.0 0.00 0.00 0.00 50 1008.9
20260503191558 83 223 0.0 3.0 0.00 0.00 0.00 19 1020.1
20260503191507 62 207 5.0 18.0 0.00 0.00 0.00 52 1008.8
20260503191004 62 199 6.0 18.0 0.00 0.00 0.00 52 1008.9
20260503190507 61 198 9.0 18.0 0.00 0.00 0.00 53 1009.1
20260503190156 83 160 1.0 7.0 0.00 0.00 0.00 19 1020.3
20260503190012 61 205 6.0 13.0 0.00 0.00 0.00 54 1009.2
20260503185503 60 172 5.0 12.0 0.00 0.00 0.00 55 1009.3
20260503185003 60 155 5.0 15.0 0.00 0.00 0.00 54 1009.4
20260503184600 82 153 0.0 4.0 0.00 0.00 0.00 24 1020.8
20260503184517 60 22 5.0 15.0 0.00 0.00 0.00 54 1009.6
20260503184004 59 178 4.0 15.0 0.00 0.00 0.00 55 1009.7
20260503183507 59 90 3.0 15.0 0.00 0.00 0.00 55 1009.8
20260503183046 83 182 0.0 7.0 0.00 0.00 0.00 22 1021.1
20260503183025 59 185 4.0 13.0 0.00 0.00 0.00 57 1009.8
20260503182459 58 161 5.0 12.0 0.00 0.00 0.00 57 1009.9
20260503182002 58 273 3.0 9.0 0.00 0.00 0.00 58 1010.0
20260503181544 83 194 0.0 1.0 0.00 0.00 0.00 25 1021.3
20260503181505 58 169 4.0 11.0 0.00 0.00 0.00 59 1010.1
20260503181003 57 169 3.0 11.0 0.00 0.00 0.00 60 1010.2
20260503180505 57 209 2.0 11.0 0.00 0.00 0.00 61 1010.3
20260503180051 82 214 2.0 6.0 0.00 0.00 0.00 20 1021.6
20260503180019 57 171 3.0 11.0 0.00 0.00 0.00 62 1010.4
20260503175504 56 174 3.0 13.0 0.00 0.00 0.00 63 1010.7
20260503175005 56 98 3.0 13.0 0.00 0.00 0.00 63 1011.1
20260503174542 82 208 0.0 2.0 0.00 0.00 0.00 24 1021.8
20260503174516 56 178 4.0 9.0 0.00 0.00 0.00 63 1011.3
20260503174007 56 177 4.0 14.0 0.00 0.00 0.00 64 1011.6
20260503173507 56 188 5.0 14.0 0.00 0.00 0.00 64 1011.7
20260503173036 56 188 4.0 10.0 0.00 0.00 0.00 67 1012.0
20260503172509 55 175 4.0 10.0 0.00 0.00 0.00 68 1012.1
20260503172010 55 180 1.0 11.0 0.00 0.00 0.00 67 1012.3
20260503171533 55 167 7.0 13.0 0.00 0.00 0.00 67 1012.4
20260503171531 80 230 1.0 4.0 0.00 0.00 0.00 26 1022.3
20260503171003 54 194 6.0 16.0 0.00 0.00 0.00 68 1012.4
20260503170503 54 135 5.0 16.0 0.00 0.00 0.00 69 1012.5
20260503151007 55 192 7.0 16.0 0.00 0.00 0.00 57 1013.5
20260503150507 54 238 8.0 16.0 0.00 0.00 0.00 57 1013.4
20260503131003 49 175 5.0 13.0 0.00 0.00 0.00 60 1014.3
20260503130503 49 221 4.0 14.0 0.00 0.00 0.00 61 1014.4
20260503110503 47 184 5.0 11.0 0.00 0.00 0.00 61 1013.9
20260503090503 46 211 1.0 6.0 0.00 0.00 0.00 60 1014.5
20260503081519 46 192 0.0 7.0 0.00 0.00 0.00 58 1014.7
20260503081517 54 123 0.0 0.0 0.00 0.00 0.00 52 1021.4
20260503081006 46 192 1.0 5.0 0.00 0.00 0.00 58 1014.7
20260503080503 46 218 1.0 6.0 0.00 0.00 0.00 58 1014.6
20260503072509 46 196 2.0 6.0 0.00 0.00 0.00 57 1014.9
20260503072004 46 205 1.0 6.0 0.00 0.00 0.00 56 1014.9
20260503071514 46 195 2.0 6.0 0.00 0.00 0.00 56 1015.0
20260503071003 46 197 1.0 5.0 0.00 0.00 0.00 56 1015.0
20260503070503 46 196 1.0 5.0 0.00 0.00 0.00 56 1015.0
20260503060107 55 123 0.0 1.0 0.00 0.00 0.00 52 1022.1
20260503055002 47 184 1.0 4.0 0.00 0.00 0.00 55 1015.6
20260503054541 55 124 2.0 3.0 0.00 0.00 0.00 53 1022.1
20260503054517 47 184 1.0 4.0 0.00 0.00 0.00 56 1015.7
20260503054004 47 201 0.0 4.0 0.00 0.00 0.00 55 1015.8
20260503053504 47 202 1.0 4.0 0.00 0.00 0.00 55 1015.8
20260503053038 55 121 0.0 0.0 0.00 0.00 0.00 54 1022.1
20260503053013 47 157 0.0 4.0 0.00 0.00 0.00 55 1015.8
20260503052505 47 201 1.0 4.0 0.00 0.00 0.00 55 1015.9
20260503052004 47 175 1.0 3.0 0.00 0.00 0.00 55 1015.9
20260503051534 56 121 0.0 0.0 0.00 0.00 0.00 50 1022.0
20260503051521 47 180 1.0 7.0 0.00 0.00 0.00 55 1016.0
20260503051007 47 207 1.0 7.0 0.00 0.00 0.00 54 1016.0
20260503050503 47 186 1.0 4.0 0.00 0.00 0.00 55 1016.0
20260503050034 56 121 0.0 2.0 0.00 0.00 0.00 50 1021.9
20260503050016 47 189 0.0 4.0 0.00 0.00 0.00 54 1016.1
20260503045506 48 214 0.0 4.0 0.00 0.00 0.00 54 1016.1
20260503045004 48 194 1.0 4.0 0.00 0.00 0.00 54 1016.1
20260503044525 48 190 0.0 4.0 0.00 0.00 0.00 53 1016.1
20260503044523 56 121 0.0 1.0 0.00 0.00 0.00 52 1021.7
20260503044006 48 202 0.0 4.0 0.00 0.00 0.00 53 1016.0
20260503043503 48 208 1.0 3.0 0.00 0.00 0.00 53 1016.0
20260503043033 55 121 0.0 0.0 0.00 0.00 0.00 54 1021.7
20260503043016 48 203 0.0 4.0 0.00 0.00 0.00 53 1016.0
20260503042504 48 200 1.0 4.0 0.00 0.00 0.00 53 1016.1
20260503042008 49 193 0.0 5.0 0.00 0.00 0.00 52 1016.1
20260503041514 49 194 0.0 5.0 0.00 0.00 0.00 52 1016.1
20260503041511 56 122 0.0 0.0 0.00 0.00 0.00 52 1021.8
20260503041004 49 190 2.0 5.0 0.00 0.00 0.00 52 1016.1
20260503040506 49 186 1.0 3.0 0.00 0.00 0.00 52 1016.2
20260503040017 49 211 1.0 4.0 0.00 0.00 0.00 52 1016.1
20260503040005 56 121 0.0 0.0 0.00 0.00 0.00 53 1021.8
20260503035506 49 194 1.0 5.0 0.00 0.00 0.00 51 1016.2
20260503035004 49 211 1.0 5.0 0.00 0.00 0.00 51 1016.1
20260503034559 56 121 0.0 0.0 0.00 0.00 0.00 53 1021.8
20260503034518 49 198 0.0 4.0 0.00 0.00 0.00 51 1016.2
20260503034005 50 193 1.0 5.0 0.00 0.00 0.00 51 1016.2
20260503033504 50 223 1.0 5.0 0.00 0.00 0.00 50 1016.1
20260503033054 55 121 0.0 0.0 0.00 0.00 0.00 54 1021.7
20260503033027 50 202 1.0 3.0 0.00 0.00 0.00 50 1016.2
20260503032507 50 207 0.0 4.0 0.00 0.00 0.00 50 1016.2
20260503032008 50 187 1.0 4.0 0.00 0.00 0.00 50 1016.3
20260503031547 56 122 0.0 0.0 0.00 0.00 0.00 55 1021.6
20260503031522 50 221 0.0 4.0 0.00 0.00 0.00 50 1016.4
20260503031007 50 191 0.0 3.0 0.00 0.00 0.00 50 1016.4
20260503030505 50 209 1.0 3.0 0.00 0.00 0.00 49 1016.5
20260503030042 58 122 0.0 0.0 0.00 0.00 0.00 54 1021.4
20260503030013 50 213 1.0 3.0 0.00 0.00 0.00 49 1016.4
20260503025505 51 205 1.0 3.0 0.00 0.00 0.00 49 1016.5
20260503025005 51 217 1.0 3.0 0.00 0.00 0.00 48 1016.4
20260503024537 60 121 0.0 0.0 0.00 0.00 0.00 53 1021.3
20260503024520 51 168 0.0 3.0 0.00 0.00 0.00 48 1016.4
20260503024006 52 171 0.0 2.0 0.00 0.00 0.00 47 1016.4
20260503023510 52 188 0.0 2.0 0.00 0.00 0.00 47 1016.3
20260503023039 52 202 0.0 2.0 0.00 0.00 0.00 47 1016.4
20260503023030 61 122 0.0 0.0 0.00 0.00 0.00 53 1021.2
20260503022506 52 186 0.0 2.0 0.00 0.00 0.00 47 1016.4
20260503022011 52 196 0.0 2.0 0.00 0.00 0.00 47 1016.4
20260503021539 63 121 0.0 0.0 0.00 0.00 0.00 51 1021.1
20260503021520 52 196 0.0 2.0 0.00 0.00 0.00 47 1016.4
20260503021004 52 194 0.0 2.0 0.00 0.00 0.00 47 1016.4
20260503020508 52 176 0.0 2.0 0.00 0.00 0.00 47 1016.4
20260503020020 52 196 0.0 2.0 0.00 0.00 0.00 46 1016.4
20260503020018 64 122 0.0 1.0 0.00 0.00 0.00 48 1021.0
20260503015508 52 191 0.0 3.0 0.00 0.00 0.00 46 1016.4
20260503015007 52 186 0.0 4.0 0.00 0.00 0.00 46 1016.3
20260503014517 52 182 0.0 4.0 0.00 0.00 0.00 45 1016.3
20260503014513 65 122 0.0 1.0 0.00 0.00 0.00 47 1020.9
20260503014006 52 198 1.0 3.0 0.00 0.00 0.00 45 1016.2
20260503013506 52 198 0.0 2.0 0.00 0.00 0.00 45 1016.1
20260503013022 53 177 0.0 2.0 0.00 0.00 0.00 45 1016.1
20260503013008 67 101 0.0 0.0 0.00 0.00 0.00 41 1020.8
20260503012506 53 181 0.0 3.0 0.00 0.00 0.00 44 1016.1
20260503012004 53 223 0.0 3.0 0.00 0.00 0.00 43 1016.1
20260503011507 53 197 0.0 3.0 0.00 0.00 0.00 43 1016.1
20260503011004 53 202 0.0 4.0 0.00 0.00 0.00 42 1016.1
20260503010504 54 198 0.0 4.0 0.00 0.00 0.00 42 1016.0
20260503010104 71 93 0.0 0.0 0.00 0.00 0.00 36 1020.5
20260503010012 54 221 2.0 5.0 0.00 0.00 0.00 41 1016.1
20260503005504 54 204 1.0 5.0 0.00 0.00 0.00 41 1016.0
20260503005010 54 233 2.0 4.0 0.00 0.00 0.00 40 1016.1
20260503004601 77 68 1.0 4.0 0.00 0.00 0.00 28 1020.6
20260503004514 55 244 1.0 7.0 0.00 0.00 0.00 39 1016.0
20260503004007 55 256 2.0 7.0 0.00 0.00 0.00 39 1016.1
20260503003504 56 269 2.0 11.0 0.00 0.00 0.00 38 1016.1
20260503003101 78 41 0.0 0.0 0.00 0.00 0.00 26 1020.5
20260503003019 56 234 5.0 11.0 0.00 0.00 0.00 37 1016.2
20260503002509 56 275 5.0 10.0 0.00 0.00 0.00 37 1016.2
20260503002002 57 235 3.0 10.0 0.00 0.00 0.00 37 1016.2
20260503001555 77 41 0.0 0.0 0.00 0.00 0.00 26 1020.6
20260503001505 57 223 5.0 10.0 0.00 0.00 0.00 37 1016.1
20260503001003 57 227 4.0 10.0 0.00 0.00 0.00 36 1016.1
20260503000504 57 261 1.0 11.0 0.00 0.00 0.00 37 1016.1
20260503000034 77 41 0.0 0.0 0.00 0.00 0.00 31 1020.5
20260503000015 57 225 6.0 11.0 0.00 0.00 0.00 36 1016.0
20260502235503 57 238 3.0 9.0 0.00 0.00 0.00 36 1016.0
20260502235003 56 296 4.0 13.0 0.00 0.00 0.00 36 1016.0
20260502234529 75 41 0.0 4.0 0.00 0.00 0.00 26 1020.6
20260502234510 56 293 5.0 13.0 0.00 0.00 0.00 36 1016.1
20260502234005 57 240 2.0 10.0 0.00 0.00 0.00 37 1016.1
20260502233505 57 283 2.0 6.0 0.00 0.00 0.00 37 1016.2
20260502233022 78 13 0.0 2.0 0.00 0.00 0.00 25 1020.5
20260502233016 57 246 2.0 8.0 0.00 0.00 0.00 37 1016.2
20260502232504 56 269 4.0 8.0 0.00 0.00 0.00 38 1016.2
20260502232005 56 236 2.0 8.0 0.00 0.00 0.00 38 1016.4
20260502231523 56 252 5.0 8.0 0.00 0.00 0.00 38 1016.2
20260502231010 56 296 2.0 11.0 0.00 0.00 0.00 38 1016.1
20260502230503 56 284 3.0 14.0 0.00 0.00 0.00 38 1016.3
20260502230011 76 315 0.0 4.0 0.00 0.00 0.00 24 1020.6
20260502230004 56 236 3.0 14.0 0.00 0.00 0.00 38 1016.4
20260502225503 56 225 5.0 12.0 0.00 0.00 0.00 38 1016.4
20260502225004 55 257 5.0 12.0 0.00 0.00 0.00 39 1016.5
20260502224511 55 290 4.0 12.0 0.00 0.00 0.00 37 1016.4
20260502224505 77 304 2.0 6.0 0.00 0.00 0.00 27 1020.6
20260502224005 55 9 4.0 12.0 0.00 0.00 0.00 38 1016.4
20260502223504 55 307 3.0 13.0 0.00 0.00 0.00 38 1016.5
20260502223100 77 10 0.0 1.0 0.00 0.00 0.00 26 1020.7
20260502223014 56 289 6.0 13.0 0.00 0.00 0.00 37 1016.6
20260502222505 56 251 7.0 13.0 0.00 0.00 0.00 37 1016.5
20260502222008 56 306 2.0 6.0 0.00 0.00 0.00 39 1016.5
20260502221554 75 106 1.0 5.0 0.00 0.00 0.00 28 1020.6
20260502221519 56 244 0.0 6.0 0.00 0.00 0.00 41 1016.4
20260502221005 55 214 0.0 7.0 0.00 0.00 0.00 40 1016.5
20260502220506 55 261 2.0 8.0 0.00 0.00 0.00 40 1016.5
20260502220048 75 275 2.0 6.0 0.00 0.00 0.00 29 1020.8
20260502220023 55 248 4.0 12.0 0.00 0.00 0.00 40 1016.7
20260502215505 55 232 2.0 12.0 0.00 0.00 0.00 40 1016.5
20260502215005 55 265 6.0 12.0 0.00 0.00 0.00 40 1016.7
20260502214542 75 60 1.0 6.0 0.00 0.00 0.00 26 1020.9
20260502214507 55 266 2.0 9.0 0.00 0.00 0.00 39 1016.7
20260502214004 55 286 3.0 9.0 0.00 0.00 0.00 40 1016.8
20260502213506 55 300 4.0 9.0 0.00 0.00 0.00 39 1016.6
20260502213051 75 83 0.0 8.0 0.00 0.00 0.00 24 1021.1
20260502213014 55 318 3.0 9.0 0.00 0.00 0.00 40 1016.7
20260502212506 55 252 3.0 11.0 0.00 0.00 0.00 40 1016.7
20260502212007 54 275 5.0 11.0 0.00 0.00 0.00 41 1016.7
20260502211530 75 49 0.0 6.0 0.00 0.00 0.00 28 1021.3
20260502211514 54 244 1.0 8.0 0.00 0.00 0.00 40 1016.8
20260502211007 54 281 3.0 12.0 0.00 0.00 0.00 41 1017.0
20260502210504 54 306 2.0 12.0 0.00 0.00 0.00 40 1017.0
20260502210024 75 65 0.0 3.0 0.00 0.00 0.00 28 1021.6
20260502210020 54 243 6.0 12.0 0.00 0.00 0.00 40 1017.0
20260502205507 54 71 1.0 7.0 0.00 0.00 0.00 41 1017.0
20260502205010 54 208 0.0 5.0 0.00 0.00 0.00 41 1017.2
20260502204527 54 263 3.0 6.0 0.00 0.00 0.00 41 1017.0
20260502204003 53 304 3.0 6.0 0.00 0.00 0.00 41 1017.2
20260502203504 53 260 1.0 4.0 0.00 0.00 0.00 41 1017.3
20260502203015 54 271 1.0 7.0 0.00 0.00 0.00 40 1017.3
20260502203012 74 339 3.0 7.0 0.00 0.00 0.00 33 1021.8
20260502202504 54 341 2.0 11.0 0.00 0.01 0.00 39 1017.5
20260502202005 54 269 2.0 11.0 0.00 0.01 0.00 39 1017.5
20260502201514 54 302 2.0 13.0 0.00 0.01 0.00 40 1017.2
20260502201510 74 117 0.0 7.0 0.00 0.00 0.00 30 1022.0
20260502201003 54 285 5.0 13.0 0.00 0.01 0.00 41 1017.6
20260502200507 53 328 1.0 7.0 0.00 0.01 0.00 40 1017.6